Procure no Apolo11
Meteógrafos Informações Meteorológicas em tempo real
Aeroporto de Congonhas
10-12-2022 05:55 BRT (UTC-3)

Temperatura atual: 18 graus 64 F    Umidade relativa: 93 %
Velocidade do vento: 06 nós 10 Km/h    Direção: 190 graus S
Ajuste do altímetro ..: 1014 HPA
Visibilidade: Regular    Tempo presente: Névoa úmida

Observação
Poucas nuvens a 200 Pés.
Data Hora BRTTempo°CUmidadePressãoVentoVisib.
10/12 - 04:55   Céu Limpo 19° 88% 1012 Sul-sudoeste/7 km/h OK
10/12 - 03:55   Céu Limpo 19° 88% 1012 Sul-sudeste/7 km/h OK
10/12 - 02:55   Céu Limpo 19° 88% 1013 Sul-sudeste/9 km/h OK
10/12 - 01:55   Céu Limpo 20° 77% 1014 Sul-sudeste/5 km/h OK
10/12 - 00:55   Céu Limpo 21° 77% 1015 Sul/7 km/h OK
09/12 - 23:55   Céu Limpo 21° 77% 1016 Sul/7 km/h OK
09/12 - 22:55   Céu Limpo 21° 73% 1016 Sul-sudeste/10 km/h OK
09/12 - 21:55   Céu Limpo 22° 64% 1015 Sul/10 km/h OK
09/12 - 20:55   Céu Limpo 22° 68% 1014 Sul-sudeste/10 km/h OK
09/12 - 19:55   Céu Limpo 23° 73% 1013 Sul-sudeste/14 km/h OK
09/12 - 18:55   Não Disponível 25° 65% 1012 Sul/21 km/h OK
09/12 - 17:55   Céu Limpo 27° 58% 1012 Sul/19 km/h OK
09/12 - 16:55   Céu Limpo 29° 42% 1012 Sul/21 km/h OK
09/12 - 15:55   Céu Limpo 31° 46% 1012 Sul/21 km/h OK
09/12 - 14:55   Céu Limpo 31° 43% 1013 Sul/16 km/h CAVO
09/12 - 13:55   Não Disponível 31° 29% 1013 Oeste-sudoeste/14 km/h 9999
09/12 - 12:55   Não Disponível 30° 37% 1014 Noroeste/10 km/h 9999
09/12 - 11:55   Céu Limpo 29° 40% 1015 /5 km/h OK
09/12 - 10:55   Céu Limpo 28° 45% 1015 /9 km/h OK
09/12 - 09:55   Céu Limpo 26° 47% 1015 Noroeste/7 km/h CAVO
09/12 - 08:55   Céu Limpo 24° 57% 1014 /3 km/h OK
09/12 - 07:55   Céu Limpo 22° 64% 1013 Nordeste/5 km/h OK
09/12 - 06:55   Céu Limpo 20° 73% 1013 Nordeste/5 km/h OK
09/12 - 05:55   Céu Limpo 19° 77% 1011 Norte-noroeste/5 km/h OK

Termo de Uso  |   Links Úteis  |   Imprensa  |  Anuncie  |  Fale Conosco  |  Versão Celular  |   Política de Privacidade

Apolo11.com - Todos os direitos reservados - 2000 - 2022

"Ainda que eu fale a língua dos homens e dos anjos, se não tiver amor, nada serei" - 1 Coríntios 13,1 -